TRA1369 LIRA-LYTV

Flight info

Callsign TRA1369
Flight time 1h 4m
Altitude 33000
Route PEMAR DCT ASPIR DCT RIVAM DCT KATTI DCT TAZ
Aircraft B738/M-SDE2E3FGHIRWXY/LB1

Departure

Time 2026-05-03 21:21
Airport Ciampino–G. B. Pastine International Airport (LIRA)

Arrival

Time 2026-05-03 22:25
Airport Tivat Airport (LYTV)
Time Latitude Longitude Altitude Speed Heading
2026-05-03 20:41 41.80042 12.58972 401 ft 0 kts 123°
2026-05-03 21:13 41.80041 12.58972 405 ft 0 kts 123°
2026-05-03 21:14 41.80041 12.58973 405 ft 0 kts 123°
2026-05-03 21:14 41.80041 12.58974 405 ft 0 kts 123°
2026-05-03 21:15 41.80041 12.58977 405 ft 1 kts 105°
2026-05-03 21:15 41.80052 12.58988 404 ft 5 kts 32°
2026-05-03 21:15 41.80114 12.59007 405 ft 13 kts 358°
2026-05-03 21:15 41.80144 12.59012 405 ft 2 kts 48°
2026-05-03 21:16 41.80162 12.59050 405 ft 4 kts 57°
2026-05-03 21:16 41.80180 12.59075 405 ft 5 kts 26°
2026-05-03 21:16 41.80229 12.59073 406 ft 0 kts 349°
2026-05-03 21:16 41.80238 12.59070 406 ft 3 kts 345°
2026-05-03 21:17 41.80268 12.59054 406 ft 7 kts 333°
2026-05-03 21:17 41.80276 12.59049 406 ft 1 kts 333°
2026-05-03 21:17 41.80331 12.59010 406 ft 12 kts 331°
2026-05-03 21:17 41.80430 12.58940 406 ft 20 kts 332°
2026-05-03 21:18 41.80557 12.58850 406 ft 20 kts 332°
2026-05-03 21:18 41.80677 12.58768 406 ft 19 kts 337°
2026-05-03 21:18 41.80751 12.58818 411 ft 9 kts 65°
2026-05-03 21:18 41.80760 12.58843 414 ft 0 kts 65°
2026-05-03 21:19 41.80763 12.58853 411 ft 5 kts 72°
2026-05-03 21:19 41.80747 12.58919 415 ft 10 kts 139°
2026-05-03 21:19 41.80710 12.58949 418 ft 0 kts 151°
2026-05-03 21:20 41.80684 12.58969 415 ft 23 kts 151°
2026-05-03 21:20 41.80310 12.59227 409 ft 96 kts 153°
2026-05-03 21:20 41.79509 12.59762 415 ft 156 kts 156°
2026-05-03 21:21 41.78486 12.60443 939 ft 166 kts 153°
2026-05-03 21:21 41.77426 12.61129 1593 ft 175 kts 163°
2026-05-03 21:21 41.76189 12.61183 2222 ft 183 kts 201°
2026-05-03 21:21 41.75127 12.60157 2700 ft 203 kts 234°
2026-05-03 21:22 41.74636 12.58345 3147 ft 209 kts 261°
2026-05-03 21:22 41.74278 12.56405 3572 ft 223 kts 250°
2026-05-03 21:22 41.73679 12.54483 4180 ft 223 kts 246°
2026-05-03 21:22 41.73058 12.52554 4762 ft 230 kts 245°
2026-05-03 21:23 41.72430 12.50576 5451 ft 231 kts 247°
2026-05-03 21:23 41.71637 12.48754 6151 ft 234 kts 223°
2026-05-03 21:23 41.70331 12.47279 6492 ft 256 kts 218°
2026-05-03 21:23 41.68935 12.45740 7137 ft 262 kts 219°
2026-05-03 21:24 41.67469 12.44248 7789 ft 270 kts 207°
2026-05-03 21:24 41.65628 12.43646 8147 ft 279 kts 178°
2026-05-03 21:24 41.63774 12.44311 8178 ft 278 kts 149°
2026-05-03 21:24 41.62369 12.46084 8199 ft 282 kts 122°
2026-05-03 21:25 41.61729 12.48575 8666 ft 288 kts 96°
2026-05-03 21:25 41.61892 12.51228 9535 ft 288 kts 75°
2026-05-03 21:25 41.62489 12.53765 10002 ft 290 kts 70°
2026-05-03 21:25 41.63183 12.56307 10172 ft 292 kts 69°
2026-05-03 21:26 41.63901 12.58854 10174 ft 291 kts 69°
2026-05-03 21:26 41.64614 12.61385 10181 ft 292 kts 69°
2026-05-03 21:26 41.65323 12.63931 10184 ft 292 kts 69°
2026-05-03 21:26 41.66027 12.66480 10186 ft 292 kts 70°
2026-05-03 21:27 41.66728 12.69042 10184 ft 292 kts 70°
2026-05-03 21:27 41.67423 12.71600 10187 ft 293 kts 70°
2026-05-03 21:27 41.68106 12.74128 10186 ft 293 kts 70°
2026-05-03 21:27 41.68797 12.76692 10186 ft 293 kts 70°
2026-05-03 21:28 41.69484 12.79253 10192 ft 293 kts 69°
2026-05-03 21:28 41.70172 12.81822 10188 ft 292 kts 70°
2026-05-03 21:28 41.70857 12.84383 10185 ft 292 kts 70°
2026-05-03 21:28 41.71538 12.86937 10185 ft 291 kts 70°
2026-05-03 21:29 41.72218 12.89489 10190 ft 291 kts 70°
2026-05-03 21:29 41.72898 12.92043 10194 ft 291 kts 70°
2026-05-03 21:29 41.73574 12.94589 10192 ft 290 kts 70°
2026-05-03 21:29 41.74250 12.97135 10194 ft 290 kts 70°
2026-05-03 21:30 41.74926 12.99683 10195 ft 290 kts 70°
2026-05-03 21:30 41.75601 13.02232 10196 ft 290 kts 70°
2026-05-03 21:30 41.76265 13.04743 10197 ft 290 kts 70°
2026-05-03 21:30 41.76939 13.07293 10198 ft 290 kts 70°
2026-05-03 21:31 41.77616 13.09859 10195 ft 291 kts 70°
2026-05-03 21:31 41.78290 13.12414 10205 ft 290 kts 70°
2026-05-03 21:31 41.78958 13.14950 10202 ft 291 kts 70°
2026-05-03 21:31 41.79633 13.17513 10217 ft 292 kts 70°
2026-05-03 21:32 41.80310 13.20089 10199 ft 293 kts 70°
2026-05-03 21:32 41.80991 13.22682 10242 ft 301 kts 70°
2026-05-03 21:32 41.81712 13.25427 10414 ft 323 kts 70°
2026-05-03 21:32 41.82484 13.28369 10572 ft 345 kts 70°
2026-05-03 21:33 41.83286 13.31433 10910 ft 358 kts 70°
2026-05-03 21:33 41.84115 13.34607 11490 ft 363 kts 70°
2026-05-03 21:33 41.84956 13.37828 12170 ft 366 kts 70°
2026-05-03 21:33 41.85800 13.41072 12823 ft 369 kts 70°
2026-05-03 21:34 41.86652 13.44347 13502 ft 373 kts 70°
2026-05-03 21:34 41.87503 13.47621 14133 ft 378 kts 70°
2026-05-03 21:34 41.88374 13.50975 14755 ft 381 kts 70°
2026-05-03 21:34 41.89246 13.54344 15511 ft 382 kts 70°
2026-05-03 21:35 41.90122 13.57726 16144 ft 386 kts 70°
2026-05-03 21:35 41.91013 13.61173 16757 ft 391 kts 70°
2026-05-03 21:35 41.91899 13.64604 17357 ft 396 kts 70°
2026-05-03 21:35 41.92803 13.68112 17978 ft 400 kts 70°
2026-05-03 21:36 41.93717 13.71664 18575 ft 404 kts 70°
2026-05-03 21:36 41.94639 13.75250 19095 ft 408 kts 70°
2026-05-03 21:36 41.95567 13.78865 19622 ft 411 kts 70°
2026-05-03 21:36 41.96502 13.82506 20153 ft 414 kts 70°
2026-05-03 21:37 41.97448 13.86193 20682 ft 418 kts 69°
2026-05-03 21:37 41.98396 13.89892 21301 ft 418 kts 69°
2026-05-03 21:37 41.99026 13.92356 21665 ft 420 kts 69°
2026-05-03 21:37 42.00291 13.97313 22311 ft 425 kts 69°
2026-05-03 21:38 42.01254 14.01098 22757 ft 429 kts 69°
2026-05-03 21:38 42.01895 14.03620 23060 ft 432 kts 69°
2026-05-03 21:38 42.02868 14.07457 23511 ft 436 kts 69°
2026-05-03 21:38 42.03849 14.11335 23922 ft 439 kts 69°
2026-05-03 21:39 42.04839 14.15253 24294 ft 442 kts 69°
2026-05-03 21:39 42.05830 14.19183 24682 ft 444 kts 69°
2026-05-03 21:39 42.06821 14.23118 25047 ft 446 kts 68°
2026-05-03 21:39 42.08142 14.28378 25579 ft 448 kts 68°
2026-05-03 21:40 42.08807 14.31027 25829 ft 450 kts 68°
2026-05-03 21:40 42.09809 14.35027 26173 ft 453 kts 68°
2026-05-03 21:40 42.10820 14.39069 26493 ft 456 kts 68°
2026-05-03 21:40 42.11834 14.43128 26822 ft 459 kts 68°
2026-05-03 21:41 42.12853 14.47213 27155 ft 461 kts 68°
2026-05-03 21:41 42.13876 14.51328 27472 ft 464 kts 68°
2026-05-03 21:41 42.14904 14.55467 27787 ft 466 kts 68°
2026-05-03 21:41 42.15937 14.59635 28096 ft 469 kts 68°
2026-05-03 21:42 42.16970 14.63809 28432 ft 470 kts 68°
2026-05-03 21:42 42.18002 14.67990 28852 ft 470 kts 68°
2026-05-03 21:42 42.19019 14.72118 29327 ft 468 kts 68°
2026-05-03 21:42 42.20044 14.76286 29782 ft 467 kts 68°
2026-05-03 21:43 42.21065 14.80445 30174 ft 467 kts 67°
2026-05-03 21:43 42.22086 14.84607 30505 ft 467 kts 67°
2026-05-03 21:43 42.23109 14.88784 30882 ft 466 kts 67°
2026-05-03 21:43 42.24121 14.92928 31312 ft 464 kts 67°
2026-05-03 21:44 42.25123 14.97040 31826 ft 459 kts 66°
2026-05-03 21:44 42.26102 15.01068 32297 ft 455 kts 66°
2026-05-03 21:44 42.27090 15.05135 32698 ft 453 kts 66°
2026-05-03 21:44 42.28072 15.09178 33027 ft 453 kts 66°
2026-05-03 21:45 42.30052 15.17336 33122 ft 458 kts 66°
2026-05-03 21:45 42.32008 15.25451 33105 ft 453 kts 66°
2026-05-03 21:46 42.33946 15.33530 33130 ft 451 kts 66°
2026-05-03 21:46 42.35886 15.41624 33121 ft 452 kts 66°
2026-05-03 21:47 42.37810 15.49684 33127 ft 452 kts 66°
2026-05-03 21:47 42.39740 15.57802 33125 ft 452 kts 66°
2026-05-03 21:48 42.41651 15.65868 33148 ft 453 kts 66°
2026-05-03 21:48 42.43573 15.74012 33132 ft 453 kts 66°
2026-05-03 21:49 42.45490 15.82164 33121 ft 453 kts 66°
2026-05-03 21:49 42.47386 15.90254 33124 ft 453 kts 66°
2026-05-03 21:50 42.49291 15.98411 33120 ft 453 kts 66°
2026-05-03 21:50 42.50588 16.06824 33128 ft 463 kts 82°
2026-05-03 21:51 42.50193 16.15570 33127 ft 469 kts 91°
2026-05-03 21:51 42.49482 16.24364 33112 ft 468 kts 91°
2026-05-03 21:52 42.48793 16.33141 33113 ft 467 kts 91°
2026-05-03 21:52 42.48143 16.41855 33126 ft 467 kts 90°
2026-05-03 21:53 42.47500 16.50604 33108 ft 466 kts 90°
2026-05-03 21:53 42.46854 16.59336 33108 ft 465 kts 90°
2026-05-03 21:54 42.46202 16.68027 33111 ft 464 kts 90°
2026-05-03 21:54 42.45543 16.76715 33118 ft 463 kts 90°
2026-05-03 21:55 42.44878 16.85388 33111 ft 463 kts 90°
2026-05-03 21:55 42.44208 16.94039 33113 ft 462 kts 90°
2026-05-03 21:56 42.43537 17.02621 33114 ft 461 kts 90°
2026-05-03 21:56 42.42855 17.11259 33114 ft 461 kts 90°
2026-05-03 21:57 42.42513 17.15592 32594 ft 466 kts 90°
2026-05-03 21:57 42.42167 17.19904 32184 ft 459 kts 90°
2026-05-03 21:57 42.41820 17.24187 31709 ft 455 kts 90°
2026-05-03 21:57 42.41477 17.28417 31250 ft 451 kts 90°
2026-05-03 21:58 42.41136 17.32614 30796 ft 447 kts 90°
2026-05-03 21:58 42.40796 17.36776 30351 ft 443 kts 90°
2026-05-03 21:58 42.40459 17.40906 29875 ft 440 kts 91°
2026-05-03 21:58 42.40122 17.44998 29362 ft 435 kts 91°
2026-05-03 21:59 42.39789 17.49038 28894 ft 430 kts 91°
2026-05-03 21:59 42.39457 17.53038 28418 ft 426 kts 91°
2026-05-03 21:59 42.39127 17.57003 27960 ft 421 kts 91°
2026-05-03 21:59 42.38799 17.60919 27494 ft 417 kts 91°
2026-05-03 22:00 42.38474 17.64796 27042 ft 413 kts 91°
2026-05-03 22:00 42.38151 17.68626 26600 ft 409 kts 91°
2026-05-03 22:00 42.37830 17.72430 26160 ft 405 kts 91°
2026-05-03 22:00 42.37510 17.76199 25744 ft 402 kts 91°
2026-05-03 22:01 42.37191 17.79938 25301 ft 399 kts 91°
2026-05-03 22:01 42.36873 17.83656 24861 ft 396 kts 91°
2026-05-03 22:01 42.36557 17.87339 24429 ft 393 kts 91°
2026-05-03 22:01 42.36242 17.90997 24000 ft 390 kts 91°
2026-05-03 22:02 42.35928 17.94626 23530 ft 388 kts 91°
2026-05-03 22:02 42.35614 17.98241 23032 ft 385 kts 91°
2026-05-03 22:02 42.35301 18.01823 22588 ft 382 kts 91°
2026-05-03 22:02 42.34995 18.05314 22164 ft 378 kts 91°
2026-05-03 22:03 42.34687 18.08813 21750 ft 374 kts 91°
2026-05-03 22:03 42.34376 18.12335 21321 ft 371 kts 91°
2026-05-03 22:03 42.34075 18.15738 20912 ft 368 kts 92°
2026-05-03 22:03 42.33772 18.19153 20505 ft 365 kts 92°
2026-05-03 22:04 42.33470 18.22547 20099 ft 362 kts 92°
2026-05-03 22:04 42.33166 18.25955 19688 ft 359 kts 92°
2026-05-03 22:04 42.32871 18.29249 19294 ft 357 kts 92°
2026-05-03 22:04 42.32573 18.32564 18896 ft 355 kts 92°
2026-05-03 22:05 42.32275 18.35866 18500 ft 353 kts 92°
2026-05-03 22:05 42.31978 18.39149 18055 ft 351 kts 92°
2026-05-03 22:05 42.31681 18.42412 17626 ft 349 kts 92°
2026-05-03 22:05 42.31386 18.45645 17234 ft 346 kts 92°
2026-05-03 22:06 42.31092 18.48859 16824 ft 343 kts 92°
2026-05-03 22:06 42.30800 18.52046 16439 ft 341 kts 92°
2026-05-03 22:06 42.30509 18.55206 16035 ft 338 kts 92°
2026-05-03 22:06 42.30219 18.58350 15645 ft 336 kts 92°
2026-05-03 22:07 42.29931 18.61469 15266 ft 334 kts 92°
2026-05-03 22:07 42.29642 18.64580 14885 ft 332 kts 92°
2026-05-03 22:07 42.29356 18.67659 14509 ft 330 kts 92°
2026-05-03 22:07 42.29070 18.70728 14133 ft 328 kts 92°
2026-05-03 22:08 42.28784 18.73784 13733 ft 327 kts 92°
2026-05-03 22:08 42.28499 18.76821 13320 ft 326 kts 92°
2026-05-03 22:08 42.28179 18.79841 12924 ft 325 kts 98°
2026-05-03 22:08 42.27343 18.82651 12582 ft 328 kts 112°
2026-05-03 22:09 42.26302 18.85426 12200 ft 326 kts 112°
2026-05-03 22:09 42.25296 18.88107 11832 ft 324 kts 112°
2026-05-03 22:09 42.24291 18.90818 11464 ft 322 kts 112°
2026-05-03 22:10 42.22335 18.96175 11017 ft 311 kts 112°
2026-05-03 22:10 42.21381 18.98796 10877 ft 303 kts 112°
2026-05-03 22:10 42.20406 19.01237 10726 ft 299 kts 123°
2026-05-03 22:10 42.18855 19.03108 10449 ft 303 kts 144°
2026-05-03 22:11 42.17090 19.04612 10287 ft 297 kts 145°
2026-05-03 22:11 42.15364 19.06084 10130 ft 291 kts 145°
2026-05-03 22:11 42.13661 19.07555 9826 ft 290 kts 145°
2026-05-03 22:11 42.11970 19.09026 9535 ft 288 kts 145°
2026-05-03 22:12 42.10270 19.10436 9301 ft 286 kts 154°
2026-05-03 22:12 42.08379 19.10958 9167 ft 280 kts 184°
2026-05-03 22:12 42.06576 19.10190 8915 ft 275 kts 218°
2026-05-03 22:12 42.05398 19.08256 8596 ft 266 kts 253°
2026-05-03 22:13 42.05247 19.05867 8321 ft 255 kts 288°
2026-05-03 22:13 42.06132 19.03908 8083 ft 244 kts 324°
2026-05-03 22:13 42.07665 19.03140 8008 ft 237 kts 360°
2026-05-03 22:13 42.09327 19.03403 7711 ft 245 kts
2026-05-03 22:14 42.11037 19.03362 7443 ft 247 kts 351°
2026-05-03 22:14 42.12706 19.02799 7161 ft 249 kts 344°
2026-05-03 22:14 42.14425 19.02591 6904 ft 253 kts 10°
2026-05-03 22:14 42.16041 19.03524 6689 ft 257 kts 31°
2026-05-03 22:15 42.17373 19.05148 6411 ft 265 kts 57°
2026-05-03 22:15 42.17843 19.07507 6168 ft 270 kts 89°
2026-05-03 22:15 42.17419 19.09955 6055 ft 271 kts 114°
2026-05-03 22:15 42.16292 19.11973 6031 ft 272 kts 140°
2026-05-03 22:16 42.14623 19.13163 5995 ft 277 kts 167°
2026-05-03 22:16 42.12768 19.13185 5995 ft 265 kts 196°
2026-05-03 22:16 42.11176 19.12099 6000 ft 251 kts 221°
2026-05-03 22:16 42.10133 19.10279 5724 ft 246 kts 253°
2026-05-03 22:17 42.09982 19.08035 5508 ft 240 kts 280°
2026-05-03 22:17 42.10427 19.05888 5258 ft 237 kts 292°
2026-05-03 22:17 42.11026 19.03823 5006 ft 236 kts 293°
2026-05-03 22:17 42.11637 19.01779 4751 ft 235 kts 294°
2026-05-03 22:18 42.12245 18.99732 4490 ft 235 kts 293°
2026-05-03 22:18 42.12842 18.97691 4226 ft 234 kts 293°
2026-05-03 22:18 42.13429 18.95660 4049 ft 229 kts 292°
2026-05-03 22:18 42.13997 18.93680 4012 ft 225 kts 292°
2026-05-03 22:19 42.14557 18.91718 4012 ft 223 kts 292°
2026-05-03 22:19 42.15113 18.89767 4016 ft 223 kts 292°
2026-05-03 22:19 42.15662 18.87839 4035 ft 217 kts 292°
2026-05-03 22:19 42.16479 18.86204 3986 ft 207 kts 327°
2026-05-03 22:20 42.17699 18.85452 4006 ft 188 kts 342°
2026-05-03 22:20 42.18923 18.84824 4006 ft 186 kts 340°
2026-05-03 22:20 42.20141 18.84196 3985 ft 191 kts 341°
2026-05-03 22:20 42.21396 18.83550 3766 ft 198 kts 340°
2026-05-03 22:21 42.22692 18.82882 3542 ft 196 kts 341°
2026-05-03 22:21 42.23942 18.82237 3327 ft 194 kts 341°
2026-05-03 22:21 42.25184 18.81596 3121 ft 188 kts 341°
2026-05-03 22:21 42.26377 18.80979 2930 ft 178 kts 341°
2026-05-03 22:22 42.27491 18.80402 2784 ft 166 kts 342°
2026-05-03 22:22 42.28571 18.79845 2583 ft 167 kts 342°
2026-05-03 22:22 42.29653 18.79289 2310 ft 164 kts 341°
2026-05-03 22:22 42.30696 18.78754 2079 ft 158 kts 341°
2026-05-03 22:23 42.31727 18.78224 1859 ft 159 kts 342°
2026-05-03 22:23 42.32809 18.77800 1673 ft 165 kts 346°
2026-05-03 22:23 42.33926 18.77442 1451 ft 166 kts 349°
2026-05-03 22:23 42.35068 18.77072 1231 ft 167 kts 346°
2026-05-03 22:24 42.36160 18.76611 921 ft 161 kts 342°
2026-05-03 22:24 42.37188 18.76014 650 ft 159 kts 331°
2026-05-03 22:24 42.38071 18.75152 406 ft 157 kts 319°
2026-05-03 22:24 42.38892 18.74188 219 ft 156 kts 319°
2026-05-03 22:25 42.39706 18.73216 27 ft 154 kts 318°
2026-05-03 22:25 42.40457 18.72335 1 ft 124 kts 319°
2026-05-03 22:25 42.40912 18.71801 5 ft 10 kts 319°
2026-05-03 22:25 42.40942 18.71791 5 ft 9 kts 18°
2026-05-03 22:26 42.40989 18.71847 6 ft 8 kts 44°
2026-05-03 22:26 42.40997 18.71852 6 ft 3 kts 15°
2026-05-03 22:26 42.41039 18.71829 6 ft 10 kts 321°
2026-05-03 22:26 42.41056 18.71812 6 ft 0 kts 327°
2026-05-03 22:28 42.41057 18.71811 6 ft 0 kts 327°
2026-05-03 22:29 42.41067 18.71805 6 ft 3 kts 343°
2026-05-03 22:29 42.41086 18.71780 6 ft 9 kts 304°
2026-05-03 22:29 42.41142 18.71706 6 ft 12 kts 318°
2026-05-03 22:29 42.41196 18.71651 6 ft 6 kts 354°
2026-05-03 22:30 42.41210 18.71665 7 ft 0 kts 53°
2026-05-03 22:30 42.41216 18.71676 7 ft 1 kts 53°
2026-05-03 22:30 42.41223 18.71693 8 ft 2 kts 72°
2026-05-03 22:30 42.41214 18.71706 8 ft 1 kts 153°
2026-05-03 22:31 42.41201 18.71706 8 ft 2 kts 176°
2026-05-03 22:31 42.41195 18.71706 7 ft 0 kts 177°